map of ICN home
ICN - Airport
Location
City:  Seoul, Republic of Korea (South Korea)
Name:Incheon International Airport
ICAO:RKSI
IATA:ICN

Details
Type:Airport (Aerodrome, Airfield)
Use:Public/Civil, International (customs port of entry)
Latitude:3728'09"N (37.469075)
Longitude:12627'02"E (126.450517)
Datum:WGS 1984
Elevation:23 ft (7 m)
Variation:8.41W (WMM2015 magnetic declination)
-0.07 annual change
Runways:2
Longest:12303 × 197 ft (3750 × 60 m), paved

Time
Time Zone:UTC+9
Local Time:

Weather
METAR:RKSI 210900Z 25009KT 230V290 9000 NSC 04/M02 Q1019 NOSIG
TAF:RKSI 210500Z 2106/2212 29015G28KT 9999 FEW030 TNM03/2121Z TX06/2205Z
TEMPO 2106/2107 27013KT
BECMG 2111/2112 31007KT 6000 NSC
BECMG 2120/2121 14006KT
BECMG 2202/2203 23010KT
BECMG 2211/2212 29012KT

Related Locations
Nearby:
Farthest:SST: 12255 mi / 19722 km
Santa Teresita, B, AR

Find:

   beyond  
but within

Other Information
Maps:
NOTAMs:
Links:
Sources:

  
  • flag of Republic of Korea (South Korea)
  

Sectional Chart

Flight Planning
at skyvector.com

Satellite Image

Google Maps Satellite view

 

Copyright © 2004-2019 Karl L. Swartz. All rights reserved.
The Great Circle Mapper name and logo are trademarks of the Great Circle Mapper.
All other trademarks mentioned herein belong to their respective owners.
Please see credits for attibutions and further copyright information.

  Follow gcmap on Facebook Follow gcmap on Twitter Follow gcmap on Google+ GCmap on LinkedIn

hCard Microformat

Geo Microformat